TimeCDT,TemperatureF,Dew PointF,Humidity,Sea Level PressureIn,VisibilityMPH,Wind Direction,Wind SpeedMPH,Gust SpeedMPH,PrecipitationIn,Events,Conditions,WindDirDegrees,DateUTC
12:15 AM,42.8,24.8,49,30.27,10.0,NNE,8.1,-,N/A,,Overcast,30,2013-04-03 05:15:00
12:35 AM,42.8,24.8,49,30.26,10.0,NE,8.1,-,N/A,,Overcast,40,2013-04-03 05:35:00
12:55 AM,42.8,24.8,49,30.26,10.0,NE,8.1,-,N/A,,Overcast,40,2013-04-03 05:55:00
1:15 AM,42.8,23.0,46,30.26,10.0,NE,8.1,-,N/A,,Overcast,40,2013-04-03 06:15:00
1:35 AM,42.8,21.2,42,30.26,10.0,NE,6.9,-,N/A,,Overcast,40,2013-04-03 06:35:00
1:55 AM,42.8,21.2,42,30.26,10.0,NE,6.9,-,N/A,,Overcast,40,2013-04-03 06:55:00
2:15 AM,41.0,21.2,45,30.26,10.0,NE,6.9,-,N/A,,Overcast,40,2013-04-03 07:15:00
2:35 AM,41.0,21.2,45,30.25,10.0,NE,10.4,-,N/A,,Mostly Cloudy,40,2013-04-03 07:35:00
2:55 AM,41.0,19.4,42,30.24,10.0,NE,11.5,-,N/A,,Partly Cloudy,40,2013-04-03 07:55:00
3:15 AM,41.0,19.4,42,30.23,10.0,NE,12.7,-,N/A,,Clear,40,2013-04-03 08:15:00
3:35 AM,39.2,19.4,45,30.22,10.0,NE,11.5,-,N/A,,Clear,50,2013-04-03 08:35:00
3:55 AM,39.2,19.4,45,30.22,10.0,NE,12.7,19.6,N/A,,Clear,50,2013-04-03 08:55:00
4:15 AM,39.2,19.4,45,30.23,10.0,ENE,9.2,-,N/A,,Clear,60,2013-04-03 09:15:00
4:35 AM,39.2,19.4,45,30.25,10.0,ENE,9.2,-,N/A,,Clear,60,2013-04-03 09:35:00
4:55 AM,39.2,19.4,45,30.25,10.0,ENE,6.9,-,N/A,,Clear,60,2013-04-03 09:55:00
5:15 AM,37.4,19.4,48,30.25,10.0,NE,6.9,-,N/A,,Clear,50,2013-04-03 10:15:00
5:35 AM,37.4,19.4,48,30.27,10.0,NE,6.9,-,N/A,,Clear,50,2013-04-03 10:35:00
5:55 AM,37.4,19.4,48,30.28,10.0,ENE,6.9,-,N/A,,Clear,60,2013-04-03 10:55:00
6:15 AM,37.4,19.4,48,30.29,10.0,NE,8.1,-,N/A,,Clear,40,2013-04-03 11:15:00
6:35 AM,37.4,19.4,48,30.29,10.0,NE,8.1,-,N/A,,Clear,50,2013-04-03 11:35:00
6:55 AM,37.4,17.6,45,30.29,10.0,NE,9.2,-,N/A,,Clear,40,2013-04-03 11:55:00
7:15 AM,37.4,19.4,48,30.29,10.0,NE,9.2,-,N/A,,Clear,40,2013-04-03 12:15:00
7:35 AM,37.4,19.4,48,30.30,10.0,NE,8.1,-,N/A,,Clear,50,2013-04-03 12:35:00
7:55 AM,39.2,19.4,45,30.31,10.0,NE,10.4,17.3,N/A,,Clear,50,2013-04-03 12:55:00
8:15 AM,39.2,19.4,45,30.30,10.0,NE,11.5,-,N/A,,Clear,50,2013-04-03 13:15:00
8:35 AM,41.0,19.4,42,30.29,10.0,NE,13.8,21.9,N/A,,Clear,50,2013-04-03 13:35:00
8:55 AM,42.8,19.4,39,30.28,10.0,NE,12.7,18.4,N/A,,Clear,50,2013-04-03 13:55:00
9:15 AM,42.8,19.4,39,30.28,10.0,ENE,12.7,19.6,N/A,,Clear,60,2013-04-03 14:15:00
9:35 AM,42.8,21.2,42,30.28,10.0,NE,13.8,20.7,N/A,,Clear,50,2013-04-03 14:35:00
9:55 AM,44.6,19.4,37,30.28,10.0,ENE,17.3,25.3,N/A,,Clear,60,2013-04-03 14:55:00
10:15 AM,44.6,21.2,39,30.28,10.0,ENE,16.1,19.6,N/A,,Clear,60,2013-04-03 15:15:00
10:35 AM,46.4,19.4,34,30.28,10.0,ENE,13.8,19.6,N/A,,Clear,60,2013-04-03 15:35:00
10:55 AM,46.4,21.2,37,30.28,10.0,NE,15.0,18.4,N/A,,Clear,50,2013-04-03 15:55:00
11:15 AM,48.2,21.2,34,30.28,10.0,ENE,12.7,-,N/A,,Clear,60,2013-04-03 16:15:00
11:35 AM,48.2,21.2,34,30.29,10.0,NE,12.7,18.4,N/A,,Clear,50,2013-04-03 16:35:00
11:55 AM,48.2,21.2,34,30.28,10.0,NE,16.1,21.9,N/A,,Clear,50,2013-04-03 16:55:00
12:15 PM,48.2,19.4,32,30.27,10.0,NE,15.0,23.0,N/A,,Clear,40,2013-04-03 17:15:00
12:35 PM,50.0,21.2,32,30.27,10.0,ENE,17.3,21.9,N/A,,Clear,60,2013-04-03 17:35:00
12:55 PM,50.0,21.2,32,30.27,10.0,NE,15.0,21.9,N/A,,Clear,50,2013-04-03 17:55:00
1:15 PM,50.0,21.2,32,30.27,10.0,ENE,16.1,23.0,N/A,,Clear,60,2013-04-03 18:15:00
1:35 PM,50.0,19.4,30,30.26,10.0,NE,13.8,18.4,N/A,,Clear,50,2013-04-03 18:35:00
1:55 PM,51.8,21.2,30,30.25,10.0,NE,15.0,19.6,N/A,,Clear,50,2013-04-03 18:55:00
2:15 PM,51.8,21.2,30,30.25,10.0,NE,13.8,20.7,N/A,,Clear,40,2013-04-03 19:15:00
2:35 PM,51.8,21.2,30,30.25,10.0,NE,12.7,-,N/A,,Clear,50,2013-04-03 19:35:00
2:55 PM,51.8,21.2,30,30.25,10.0,ENE,15.0,18.4,N/A,,Clear,70,2013-04-03 19:55:00
3:15 PM,51.8,21.2,30,30.24,10.0,ENE,12.7,-,N/A,,Clear,60,2013-04-03 20:15:00
3:35 PM,51.8,21.2,30,30.24,10.0,ENE,10.4,17.3,N/A,,Clear,70,2013-04-03 20:35:00
3:55 PM,51.8,21.2,30,30.22,10.0,ENE,11.5,18.4,N/A,,Clear,60,2013-04-03 20:55:00
4:15 PM,51.8,21.2,30,30.22,10.0,ENE,10.4,-,N/A,,Clear,60,2013-04-03 21:15:00
4:35 PM,51.8,21.2,30,30.21,10.0,ENE,10.4,-,N/A,,Partly Cloudy,60,2013-04-03 21:35:00
4:55 PM,51.8,21.2,30,30.20,10.0,ENE,12.7,17.3,N/A,,Partly Cloudy,70,2013-04-03 21:55:00
5:15 PM,51.8,21.2,30,30.20,10.0,ENE,9.2,-,N/A,,Partly Cloudy,70,2013-04-03 22:15:00
5:35 PM,51.8,21.2,30,30.19,10.0,ENE,8.1,-,N/A,,Scattered Clouds,70,2013-04-03 22:35:00
5:55 PM,51.8,21.2,30,30.19,10.0,ENE,8.1,-,N/A,,Partly Cloudy,60,2013-04-03 22:55:00
6:15 PM,51.8,21.2,30,30.18,10.0,NE,10.4,-,N/A,,Scattered Clouds,50,2013-04-03 23:15:00
6:35 PM,51.8,21.2,30,30.18,10.0,NE,11.5,-,N/A,,Partly Cloudy,50,2013-04-03 23:35:00
6:55 PM,51.8,21.2,30,30.18,10.0,NE,9.2,-,N/A,,Partly Cloudy,40,2013-04-03 23:55:00
7:15 PM,51.8,21.2,30,30.19,10.0,NE,10.4,-,N/A,,Partly Cloudy,50,2013-04-04 00:15:00
7:35 PM,50.0,21.2,32,30.18,10.0,NE,10.4,-,N/A,,Scattered Clouds,50,2013-04-04 00:35:00
7:55 PM,50.0,21.2,32,30.18,10.0,NE,9.2,-,N/A,,Mostly Cloudy,50,2013-04-04 00:55:00
8:15 PM,50.0,21.2,32,30.19,10.0,NE,8.1,-,N/A,,Scattered Clouds,50,2013-04-04 01:15:00
8:35 PM,50.0,21.2,32,30.20,10.0,NE,8.1,-,N/A,,Scattered Clouds,40,2013-04-04 01:35:00
8:55 PM,48.2,21.2,34,30.19,10.0,NE,6.9,-,N/A,,Scattered Clouds,50,2013-04-04 01:55:00
9:15 PM,48.2,21.2,34,30.20,10.0,NE,9.2,-,N/A,,Scattered Clouds,40,2013-04-04 02:15:00
9:35 PM,48.2,21.2,34,30.21,10.0,NNE,6.9,-,N/A,,Mostly Cloudy,30,2013-04-04 02:35:00
9:55 PM,48.2,23.0,37,30.20,10.0,NE,6.9,-,N/A,,Mostly Cloudy,40,2013-04-04 02:55:00
10:15 PM,48.2,23.0,37,30.20,10.0,NE,8.1,-,N/A,,Scattered Clouds,40,2013-04-04 03:15:00
10:35 PM,48.2,24.8,40,30.19,10.0,NE,8.1,-,N/A,,Mostly Cloudy,40,2013-04-04 03:35:00
10:55 PM,48.2,24.8,40,30.18,10.0,ENE,8.1,-,N/A,,Overcast,60,2013-04-04 03:55:00
11:15 PM,48.2,24.8,40,30.18,10.0,ENE,6.9,-,N/A,,Overcast,60,2013-04-04 04:15:00
11:35 PM,46.4,24.8,43,30.17,10.0,NE,9.2,-,N/A,,Overcast,50,2013-04-04 04:35:00
11:55 PM,46.4,24.8,43,30.17,10.0,ENE,6.9,-,N/A,,Overcast,60,2013-04-04 04:55:00